Weather History for Shymkent, Kazakhstan

Change the Weather History Date:

Friday, January 18, 2013

  Actual Average Record
Temperature  
Mean Temperature 24 °F -  
Max Temperature 41 °F - - ()
Min Temperature 7 °F - - ()
Degree Days  
Heating Degree Days 41    
Moisture  
Dew Point 13 °F    
Average Humidity 75    
Maximum Humidity 93    
Minimum Humidity 22    
Precipitation  
Precipitation 0.00 in - - ()
Sea Level Pressure  
Sea Level Pressure 30.25 in    
Wind  
Wind Speed 3 mph ()    
Max Wind Speed 9 mph    
Max Gust Speed -    
Visibility 2.0 miles    
Events Fog    
T = Trace of Precipitation, MM = Missing Value Source: Averaged Metar Reports

Daily Weather History Graph

Daily Weather History Graph

Search for Another Location

Airport:

Trip Planner

Search our weather history database for the weather conditions in past years. The results will help you decide how hot, cold, wet, or windy it might be!

Date:

Astronomy

Jan. 18, 2013 Rise Set
Actual Time 8:47 AM ALMT 6:18 PM ALMT
Civil Twilight 8:16 AM ALMT 6:49 PM ALMT
Nautical Twilight 7:41 AM ALMT 7:23 PM ALMT
Astronomical Twilight 7:08 AM ALMT 7:57 PM ALMT
Moon 12:02 PM ALMT (1/18) 12:51 AM ALMT (1/18)
Length of Visible Light 10h 32m
Length of Day
9h 30m
Waxing Crescent, 43% of the Moon is Illuminated
Jan 18
Waxing Crescent
Jan 19
First Quarter
Jan 27
Full
Feb 3
Last Quarter
Feb 10
New

Hourly Weather History & Observations

Time (ALMT) Temp. Windchill Dew Point Humidity Pressure Visibility Wind Dir Wind Speed Gust Speed Precip Events Conditions
12:00 AM 14 °F - 9 °F 70% 30.51 in - SE 2.2 mph - -   Mist
12:00 AM 15.8 °F - 14.0 °F 93% 30.36 in 0.2 mi Variable 2.2 mph - N/A Fog Light Freezing Fog
12:30 AM 14.0 °F - 12.2 °F 93% 30.36 in 0.2 mi Calm Calm - N/A Fog Light Freezing Fog
1:00 AM 10.4 °F - 8.6 °F 92% 30.36 in 0.1 mi Variable 2.2 mph - N/A Fog Light Freezing Fog
1:30 AM 10.4 °F - 8.6 °F 92% 30.36 in 0.1 mi ESE 2.2 mph - N/A Fog Light Freezing Fog
2:00 AM 12.2 °F - 10.4 °F 92% 30.33 in 0.1 mi ESE 2.2 mph - N/A Fog Light Freezing Fog
2:30 AM 14.0 °F 6.6 °F 12.2 °F 93% 30.33 in 0.3 mi ESE 4.5 mph - N/A Fog Light Freezing Fog
3:00 AM 11 °F - 6 °F 72% 30.47 in - Calm Calm - -   Mist
3:00 AM 12.2 °F - 10.4 °F 92% 30.33 in 0.3 mi Calm Calm - N/A Fog Light Freezing Fog
3:30 AM 10.4 °F - 6.8 °F 85% 30.33 in 0.3 mi Calm Calm - N/A Fog Light Freezing Fog
4:00 AM 12.2 °F 4.5 °F 10.4 °F 92% 30.30 in 0.3 mi ESE 4.5 mph - N/A Fog Light Freezing Fog
4:30 AM 10.4 °F -0.2 °F 8.6 °F 92% 30.30 in 0.7 mi ESE 6.7 mph - N/A   Mostly Cloudy
5:00 AM 12.2 °F 4.5 °F 10.4 °F 92% 30.30 in 0.7 mi ESE 4.5 mph - N/A   Mostly Cloudy
5:30 AM 12.2 °F 4.5 °F 8.6 °F 85% 30.27 in 0.7 mi ESE 4.5 mph - N/A   Mostly Cloudy
6:00 AM 8 °F - 1 °F 63% 30.44 in - SSE 4.5 mph - -   Mist
6:00 AM 12.2 °F 4.5 °F 8.6 °F 85% 30.27 in 0.7 mi East 4.5 mph - N/A   Mostly Cloudy
6:30 AM 10.4 °F - 8.6 °F 92% 30.27 in 0.7 mi Calm Calm - N/A   Mostly Cloudy
7:00 AM 10.4 °F 2.4 °F 8.6 °F 92% 30.27 in 0.7 mi ESE 4.5 mph - N/A   Mostly Cloudy
7:30 AM 10.4 °F 2.4 °F 6.8 °F 85% 30.27 in 3.1 mi ESE 4.5 mph - N/A   Mostly Cloudy
8:00 AM 10.4 °F 2.4 °F 8.6 °F 92% 30.27 in 3.7 mi ESE 4.5 mph - N/A   Mostly Cloudy
8:30 AM 6.8 °F -4.6 °F 5.0 °F 92% 30.24 in 3.7 mi ESE 6.7 mph - N/A   Mostly Cloudy
9:00 AM 13 °F - 2 °F 46% 30.40 in 31 mi Calm Calm - -  
9:00 AM 10.4 °F -0.2 °F 8.6 °F 92% 30.27 in 1.9 mi ESE 6.7 mph - N/A   Mostly Cloudy
9:30 AM 10.4 °F -0.2 °F 8.6 °F 92% 30.24 in 1.9 mi ESE 6.7 mph - N/A   Mostly Cloudy
10:00 AM 15.8 °F - 12.2 °F 86% 30.27 in 1.9 mi SSE 2.2 mph - N/A   Mostly Cloudy
10:30 AM 17.6 °F - 14.0 °F 86% 30.24 in 2.2 mi Variable 2.2 mph - N/A   Mostly Cloudy
11:00 AM 21.2 °F - 14.0 °F 74% 30.24 in 2.2 mi Calm Calm - N/A   Mostly Cloudy
11:30 AM 26.6 °F - 15.8 °F 64% 30.24 in 3.1 mi Variable 2.2 mph - N/A   Smoke
12:00 PM 29 °F - 16 °F 45% 30.31 in 31 mi NW 2.2 mph - -   Clear
12:00 PM 28.4 °F - 15.8 °F 59% 30.24 in 3.1 mi Calm Calm - N/A   Smoke
12:30 PM 30.2 °F - 17.6 °F 60% 30.21 in 3.1 mi West 2.2 mph - N/A   Smoke
1:00 PM 30.2 °F 25.5 °F 19.4 °F 64% 30.21 in 3.1 mi WNW 4.5 mph - N/A   Smoke
1:30 PM 30.2 °F - 19.4 °F 64% 30.18 in 3.1 mi Variable 2.2 mph - N/A   Smoke
2:00 PM 32.0 °F - 21.2 °F 64% 30.18 in 3.7 mi West 2.2 mph - N/A   Mostly Cloudy
2:30 PM 33.8 °F - 19.4 °F 56% 30.15 in 3.7 mi Variable 2.2 mph - N/A   Mostly Cloudy
3:00 PM 38 °F - 13 °F 22% 30.20 in 31 mi SSE 2.2 mph - -  
3:00 PM 35.6 °F 31.8 °F 17.6 °F 48% 30.15 in 4.3 mi West 4.5 mph - N/A   Mostly Cloudy
3:30 PM 33.8 °F 29.7 °F 19.4 °F 56% 30.15 in 4.3 mi NW 4.5 mph - N/A   Mostly Cloudy
4:00 PM 33.8 °F 29.7 °F 19.4 °F 56% 30.15 in 4.3 mi WNW 4.5 mph - N/A   Mostly Cloudy
4:30 PM 33.8 °F 29.7 °F 17.6 °F 52% 30.15 in 4.3 mi NW 4.5 mph - N/A   Mostly Cloudy
5:00 PM 32.0 °F 27.6 °F 17.6 °F 55% 30.15 in 4.3 mi WNW 4.5 mph - N/A   Mostly Cloudy
5:30 PM 32.0 °F - 19.4 °F 60% 30.18 in 4.3 mi WNW 2.2 mph - N/A   Mostly Cloudy
6:00 PM 33 °F - 12 °F 28% 30.23 in 31 mi WSW 2.2 mph - -   Clear
6:00 PM 30.2 °F - 19.4 °F 64% 30.18 in 4.3 mi Variable 2.2 mph - N/A   Mostly Cloudy
6:30 PM 24.8 °F 19.2 °F 17.6 °F 74% 30.18 in 2.5 mi West 4.5 mph - N/A   Mostly Cloudy
7:00 PM 23.0 °F 17.1 °F 17.6 °F 80% 30.18 in 2.5 mi West 4.5 mph - N/A   Mostly Cloudy
7:30 PM 19.4 °F - 14.0 °F 80% 30.18 in 2.5 mi Calm Calm - N/A   Mostly Cloudy
8:00 PM 17.6 °F 8.4 °F 14.0 °F 86% 30.15 in 1.2 mi SE 6.7 mph - N/A   Mostly Cloudy
8:30 PM 19.4 °F - 15.8 °F 86% 30.15 in 1.2 mi West 2.2 mph - N/A   Mostly Cloudy
9:00 PM - - - % 30.25 in - SE 4.5 mph - -   Clear
9:00 PM 15.8 °F - 12.2 °F 86% 30.15 in 1.2 mi ESE 2.2 mph - N/A   Mostly Cloudy
9:30 PM 19.4 °F - 14.0 °F 80% 30.15 in 1.2 mi Calm Calm - N/A   Mostly Cloudy
10:00 PM 19.4 °F 10.6 °F 14.0 °F 80% 30.15 in 1.2 mi SE 6.7 mph - N/A   Mostly Cloudy
10:30 PM 19.4 °F 12.9 °F 12.2 °F 74% 30.15 in 1.2 mi SSE 4.5 mph - N/A   Mostly Cloudy
11:00 PM 19.4 °F 8.8 °F 12.2 °F 74% 30.15 in 1.2 mi ESE 8.9 mph - N/A   Mostly Cloudy
11:30 PM 19.4 °F 8.8 °F 12.2 °F 74% 30.15 in 1.2 mi ESE 8.9 mph - N/A   Mostly Cloudy